�N����,����,�~����,�C��,���x,�C��,����,���ϕ���,�ő�u�ԕ���,�ő厞����,���˗�,�I�_���x,�n�����x,�ő啗���N��,DTYPE
"16/05/26","00:10",0.0,21.2,80.7,1007.1,312.4,1.0,1.3,321.7,0.00,17.8,21.3,"00:05:36",1
"16/05/26","00:20",0.0,21.3,81.0,1007.4,314.0,1.0,1.9,342.4,0.00,17.9,21.1,"00:13:04",1
"16/05/26","00:30",0.0,21.1,81.6,1007.4,306.3,1.0,1.4,322.9,0.00,17.9,21.1,"00:29:20",1
"16/05/26","00:40",0.0,21.1,81.7,1007.1,292.1,0.6,1.4,318.1,0.00,17.9,21.1,"00:30:08",1
"16/05/26","00:50",0.0,21.1,81.6,1007.1,290.3,0.6,1.1,332.2,0.00,17.9,21.1,"00:49:36",1
"16/05/26","01:00",0.0,21.0,81.5,1007.4,298.7,0.7,1.0,324.3,0.00,17.8,21.2,"00:53:44",1
"16/05/26","01:10",0.0,20.8,82.1,1006.7,299.3,1.0,1.3,312.5,0.00,17.7,21.0,"01:06:00",1
"16/05/26","01:20",0.0,20.5,83.3,1006.4,327.4,1.1,1.7,332.6,0.00,17.6,20.9,"01:11:28",1
"16/05/26","01:30",0.0,20.2,84.3,1006.9,294.4,0.7,1.0,308.7,0.00,17.5,20.7,"01:20:02",1
"16/05/26","01:40",0.0,20.0,85.4,1006.9,309.5,1.1,1.4,310.4,0.00,17.5,21.0,"01:36:16",1
"16/05/26","01:50",0.0,20.1,85.9,1006.7,307.9,0.8,1.3,342.2,0.00,17.7,21.0,"01:46:40",1
"16/05/26","02:00",0.0,20.2,85.9,1006.4,289.5,0.7,0.8,292.5,0.00,17.8,20.7,"01:50:16",1
"16/05/26","02:10",0.0,20.2,85.9,1006.4,308.0,1.0,1.3,322.1,0.00,17.8,20.7,"02:06:00",1
"16/05/26","02:20",0.0,20.3,85.4,1006.9,302.8,0.8,1.2,317.2,0.00,17.8,20.8,"02:10:24",1
"16/05/26","02:30",0.0,20.5,85.7,1006.7,298.1,0.7,1.1,312.0,0.00,18.1,20.7,"02:22:56",1
"16/05/26","02:40",0.0,20.5,85.4,1006.7,292.2,0.7,1.0,294.1,0.00,18.0,20.7,"02:32:48",1
"16/05/26","02:50",0.0,20.7,85.3,1006.9,292.7,1.0,1.2,308.6,0.00,18.2,20.7,"02:42:48",1
"16/05/26","03:00",0.0,20.7,85.3,1006.9,313.9,1.0,1.7,341.3,0.00,18.2,20.8,"02:58:40",1
"16/05/26","03:10",0.0,20.7,85.2,1006.7,302.8,1.0,1.6,318.7,0.00,18.2,20.8,"03:00:48",1
"16/05/26","03:20",0.0,20.7,85.2,1007.1,293.0,0.7,0.9,299.3,0.00,18.2,20.7,"03:14:08",1
"16/05/26","03:30",0.0,20.7,85.2,1007.1,299.4,0.8,1.3,314.0,0.00,18.2,20.7,"03:28:00",1
"16/05/26","03:40",0.0,20.6,85.6,1007.4,311.9,1.1,1.6,321.2,0.00,18.1,20.7,"03:38:00",1
"16/05/26","03:50",0.0,20.6,85.6,1007.1,294.9,0.8,1.3,315.8,0.00,18.1,20.7,"03:40:08",1
"16/05/26","04:00",0.0,20.5,85.9,1007.6,301.2,0.8,1.3,330.6,0.00,18.1,20.8,"03:50:24",1
"16/05/26","04:10",0.0,20.4,85.9,1007.4,296.6,0.7,1.2,321.5,0.00,18.0,20.7,"04:07:20",1
"16/05/26","04:20",0.0,20.5,85.8,1007.1,301.0,0.6,0.9,307.8,0.00,18.1,20.6,"04:13:04",1
"16/05/26","04:30",0.0,20.4,85.9,1007.8,295.3,0.7,1.0,305.8,0.00,18.0,20.6,"04:22:00",1
"16/05/26","04:40",0.0,20.4,86.4,1007.4,292.9,0.8,1.1,306.5,0.00,18.1,20.5,"04:32:40",1
"16/05/26","04:50",0.0,20.5,86.1,1007.4,300.8,1.0,1.2,306.7,0.00,18.1,20.7,"04:44:40",1
"16/05/26","05:00",0.0,20.6,86.0,1007.4,311.3,0.8,1.3,334.8,0.00,18.2,20.6,"04:59:52",1
"16/05/26","05:10",0.0,20.7,86.1,1007.4,326.6,1.3,1.8,333.4,0.00,18.3,20.7,"05:01:44",1
"16/05/26","05:20",0.0,20.8,86.5,1007.4,329.9,1.2,1.8,332.1,0.00,18.5,20.7,"05:18:00",1
"16/05/26","05:30",0.0,20.7,86.4,1007.4,326.9,1.3,1.8,325.9,0.00,18.4,20.5,"05:22:08",1
"16/05/26","05:40",0.0,21.0,86.9,1007.4,323.9,1.3,1.6,330.8,0.01,18.8,20.7,"05:30:24",1
"16/05/26","05:50",0.0,21.2,85.6,1007.6,294.5,0.7,1.1,307.4,0.03,18.7,20.7,"05:40:08",1
"16/05/26","06:00",0.0,21.9,84.4,1007.4,288.8,0.5,0.8,294.8,0.04,19.2,20.8,"05:50:16",1
"16/05/26","06:10",0.0,22.2,82.2,1007.1,262.7,0.6,0.9,246.9,0.03,19.1,20.9,"06:03:28",1
"16/05/26","06:20",0.0,22.4,81.6,1007.1,284.0,0.6,1.1,310.8,0.03,19.1,20.9,"06:18:40",1
"16/05/26","06:30",0.0,22.5,80.9,1006.9,338.0,0.8,2.2,331.8,0.03,19.1,20.9,"06:26:08",1
"16/05/26","06:40",0.0,22.6,80.6,1006.9,336.9,1.1,2.2,339.6,0.03,19.1,20.8,"06:33:52",1
"16/05/26","06:50",0.0,22.8,80.4,1007.1,340.4,1.0,2.0,327.3,0.04,19.3,20.9,"06:44:56",1
"16/05/26","07:00",0.0,23.5,78.0,1007.1,337.1,0.6,1.7,321.6,0.09,19.5,21.1,"06:54:56",1
"16/05/26","07:10",0.0,23.7,76.1,1007.1,24.8,0.6,1.4,191.5,0.10,19.3,21.0,"07:03:20",1
"16/05/26","07:20",0.0,24.0,77.1,1006.9,334.0,1.0,2.5,336.8,0.11,19.8,21.2,"07:13:04",1
"16/05/26","07:30",0.0,23.9,75.2,1006.9,143.1,0.8,2.9,125.9,0.10,19.3,21.3,"07:29:12",1
"16/05/26","07:40",0.0,23.9,75.2,1006.7,158.3,1.2,2.6,141.8,0.12,19.3,21.6,"07:39:20",1
"16/05/26","07:50",0.0,24.2,74.4,1006.4,147.0,1.5,2.8,145.0,0.16,19.4,21.6,"07:44:56",1
"16/05/26","08:00",0.0,24.4,75.0,1006.7,130.6,0.8,2.0,154.3,0.13,19.7,21.8,"07:51:36",1
"16/05/26","08:10",0.0,24.4,73.3,1006.7,139.5,0.8,2.0,128.3,0.08,19.4,21.8,"08:05:44",1
"16/05/26","08:20",0.0,24.2,73.3,1006.7,89.3,0.6,1.6,28.2,0.04,19.2,21.8,"08:10:16",1
"16/05/26","08:30",0.0,23.9,73.3,1006.4,77.1,0.6,2.6,37.0,0.02,18.9,21.8,"08:26:24",1
"16/05/26","08:40",0.0,23.9,74.1,1006.7,20.5,0.6,1.6,34.6,0.04,19.0,21.9,"08:39:36",1
"16/05/26","08:50",0.0,24.2,74.3,1006.4,114.3,0.7,2.1,137.8,0.08,19.4,21.8,"08:45:36",1
"16/05/26","09:00",0.0,24.6,74.3,1006.4,162.1,1.0,2.0,145.3,0.13,19.8,22.0,"08:57:28",1
"16/05/26","09:10",0.0,25.1,70.9,1006.0,84.1,0.8,2.8,138.2,0.16,19.5,21.8,"09:02:56",1
"16/05/26","09:20",0.0,25.3,70.2,1006.0,345.9,1.1,2.8,338.8,0.19,19.5,22.0,"09:15:28",1
"16/05/26","09:30",0.0,25.8,69.2,1006.0,65.9,0.8,2.7,345.9,0.21,19.8,22.2,"09:25:36",1
"16/05/26","09:40",0.0,26.3,68.2,1005.7,123.2,1.1,2.5,129.3,0.33,20.0,22.7,"09:32:24",1
"16/05/26","09:50",0.0,26.3,66.2,1005.2,97.3,1.0,2.8,14.7,0.31,19.5,22.8,"09:48:48",1
"16/05/26","10:00",0.0,26.1,66.3,1005.5,69.8,1.2,3.1,44.9,0.23,19.4,22.9,"09:53:20",1
"16/05/26","10:10",0.0,26.1,66.9,1005.5,79.7,0.8,2.4,3.1,0.21,19.5,23.0,"10:00:48",1
"16/05/26","10:20",0.0,26.5,66.9,1004.8,92.4,1.1,2.9,120.1,0.25,19.9,23.0,"10:14:56",1
"16/05/26","10:30",0.0,26.9,65.4,1004.3,87.0,1.1,2.5,108.1,0.31,19.9,23.2,"10:26:16",1
"16/05/26","10:40",0.0,26.7,67.0,1004.8,119.9,1.5,3.3,125.4,0.29,20.1,23.4,"10:31:12",1
"16/05/26","10:50",0.0,26.9,65.3,1004.5,142.3,1.3,2.7,193.0,0.30,19.9,23.6,"10:44:16",1
"16/05/26","11:00",0.0,27.2,62.4,1004.8,143.1,1.1,2.6,220.7,0.26,19.4,23.7,"10:52:00",1
"16/05/26","11:10",0.0,27.1,64.4,1004.8,114.5,0.8,2.2,122.1,0.21,19.8,23.9,"11:04:08",1
"16/05/26","11:20",0.0,27.0,63.7,1004.8,174.5,1.0,2.0,201.6,0.17,19.6,24.0,"11:11:36",1
"16/05/26","11:30",0.0,27.6,61.9,1004.5,158.6,1.0,2.2,175.8,0.23,19.7,24.1,"11:21:12",1
"16/05/26","11:40",0.0,27.9,60.4,1004.1,164.4,1.0,2.2,156.5,0.29,19.6,24.3,"11:35:04",1
"16/05/26","11:50",0.0,28.1,59.8,1004.5,147.3,0.8,2.2,115.0,0.27,19.6,24.5,"11:43:12",1
"16/05/26","12:00",0.0,27.6,61.0,1004.8,148.1,1.1,2.5,133.5,0.22,19.4,24.5,"11:56:56",1
"16/05/26","12:10",0.0,27.4,61.3,1004.1,123.8,0.8,2.1,113.3,0.14,19.3,24.3,"12:06:40",1
"16/05/26","12:20",0.0,27.8,61.1,1003.8,31.9,0.8,2.0,342.9,0.20,19.7,24.5,"12:14:56",1
"16/05/26","12:30",0.0,27.5,60.9,1003.6,33.2,1.1,2.8,354.1,0.17,19.3,24.7,"12:28:16",1
"16/05/26","12:40",0.0,28.5,59.4,1003.6,68.9,0.8,1.7,164.3,0.27,19.9,24.7,"12:37:28",1
"16/05/26","12:50",0.0,28.6,60.6,1003.6,153.0,0.8,2.1,137.3,0.27,20.3,24.7,"12:40:24",1
"16/05/26","13:00",0.0,28.4,58.6,1003.4,84.9,1.1,2.2,148.1,0.25,19.5,24.7,"12:50:48",1
"16/05/26","13:10",0.0,28.5,58.7,1003.4,103.6,1.0,2.4,104.1,0.25,19.7,24.9,"13:02:40",1
"16/05/26","13:20",0.0,29.0,57.4,1003.1,120.2,1.2,2.7,120.5,0.37,19.8,25.0,"13:19:20",1
"16/05/26","13:30",0.0,29.0,58.3,1002.9,121.2,1.3,3.7,121.8,0.36,20.0,25.3,"13:27:12",1
"16/05/26","13:40",0.0,30.2,55.7,1002.9,112.5,1.1,2.5,132.2,0.48,20.4,25.2,"13:33:04",1
"16/05/26","13:50",0.0,28.9,57.0,1002.6,103.7,1.2,3.6,153.2,0.23,19.6,25.3,"13:40:40",1
"16/05/26","14:00",0.0,29.0,58.4,1002.6,58.6,0.8,2.9,85.5,0.19,20.1,25.4,"13:50:56",1
"16/05/26","14:10",0.0,28.6,58.4,1001.9,139.4,1.2,2.9,130.9,0.08,19.7,25.3,"14:03:44",1
"16/05/26","14:20",0.0,27.9,60.7,1001.5,154.3,1.8,3.7,181.7,0.05,19.6,25.2,"14:13:36",1
"16/05/26","14:30",0.0,27.7,61.6,1001.0,133.5,1.1,2.7,137.1,0.03,19.7,25.4,"14:22:32",1
"16/05/26","14:40",0.0,27.4,62.2,1001.0,121.4,1.2,2.8,143.9,0.01,19.6,25.1,"14:39:36",1
"16/05/26","14:50",0.0,27.2,63.4,1001.2,145.5,1.2,3.4,135.4,0.01,19.7,25.0,"14:44:08",1
"16/05/26","15:00",0.0,27.2,63.9,1001.2,115.6,0.6,1.6,343.6,0.00,19.8,24.8,"14:59:52",1
"16/05/26","15:10",0.0,27.2,64.7,1001.2,307.9,0.6,1.9,337.4,0.00,20.0,24.7,"15:00:08",1
"16/05/26","15:20",0.0,27.1,64.3,1001.2,151.7,1.1,2.6,228.9,0.00,19.8,24.7,"15:19:12",1
"16/05/26","15:30",0.0,27.2,64.4,1001.2,231.5,0.8,1.4,212.4,0.01,19.9,24.7,"15:25:04",1
"16/05/26","15:40",0.0,27.1,65.5,1001.5,229.1,0.7,1.4,142.6,0.01,20.1,24.7,"15:32:48",1
"16/05/26","15:50",0.0,26.9,65.8,1001.5,152.8,0.6,1.7,306.7,0.01,20.0,24.6,"15:43:12",1
"16/05/26","16:00",0.0,27.1,64.5,1001.5,188.0,0.6,1.3,161.1,0.01,19.9,24.2,"15:50:48",1
"16/05/26","16:10",0.0,27.1,64.0,1001.2,166.0,0.8,2.6,157.4,0.02,19.7,24.4,"16:05:04",1
"16/05/26","16:20",0.0,26.7,67.9,1001.0,311.5,0.7,1.4,315.8,0.02,20.3,24.2,"16:12:40",1
"16/05/26","16:30",0.0,26.3,70.3,1001.0,321.8,1.0,2.5,350.2,0.03,20.5,24.4,"16:20:08",1
"16/05/26","16:40",0.0,26.0,71.9,1001.0,327.2,1.0,2.8,345.7,0.01,20.6,24.2,"16:34:24",1
"16/05/26","16:50",0.0,25.8,72.6,1001.2,308.0,0.7,1.2,334.6,0.02,20.5,24.1,"16:40:40",1
"16/05/26","17:00",0.0,26.0,72.8,1001.0,308.8,0.5,1.0,302.0,0.03,20.8,24.2,"16:50:48",1
"16/05/26","17:10",0.0,26.1,72.3,1001.2,313.9,0.6,1.4,336.6,0.03,20.8,24.0,"17:06:08",1
"16/05/26","17:20",0.0,25.9,72.4,1001.0,334.6,0.8,1.9,344.6,0.01,20.6,24.0,"17:12:24",1
"16/05/26","17:30",0.0,25.7,72.9,1001.2,340.1,0.8,1.8,342.3,0.00,20.5,24.0,"17:27:28",1
"16/05/26","17:40",0.0,25.7,73.5,1001.2,335.3,0.8,1.6,339.8,0.00,20.6,24.0,"17:33:36",1
"16/05/26","17:50",0.0,25.6,73.8,1001.5,314.3,0.7,1.3,344.1,0.00,20.6,24.0,"17:40:16",1
"16/05/26","18:00",0.0,25.6,74.1,1001.5,319.6,0.6,1.6,350.3,0.01,20.7,24.1,"17:55:44",1
"16/05/26","18:10",0.0,25.5,73.0,1001.7,351.8,0.8,1.9,333.2,0.01,20.3,23.8,"18:01:12",1
"16/05/26","18:20",0.0,25.1,75.4,1001.9,48.7,0.6,1.9,72.9,0.00,20.5,23.8,"18:12:48",1
"16/05/26","18:30",0.0,24.5,77.4,1001.9,356.6,0.8,2.0,336.6,0.00,20.3,23.7,"18:28:48",1
"16/05/26","18:40",0.0,24.3,78.7,1001.7,3.9,0.7,1.6,15.2,0.00,20.4,23.7,"18:34:48",1
"16/05/26","18:50",0.2,24.0,80.5,1002.2,356.6,0.8,1.9,2.6,0.00,20.5,23.5,"18:49:12",1
"16/05/26","19:00",0.0,23.5,82.7,1002.2,299.6,1.0,3.1,340.7,0.00,20.4,23.5,"18:50:08",1
"16/05/26","19:10",0.0,23.2,84.7,1002.6,260.5,0.6,1.1,256.0,0.00,20.5,23.2,"19:03:20",1
"16/05/26","19:20",0.0,22.9,86.4,1002.4,261.5,0.7,1.2,258.9,0.00,20.5,23.2,"19:18:24",1
"16/05/26","19:30",0.0,22.7,87.3,1002.6,283.9,0.6,1.1,307.5,0.00,20.5,23.1,"19:26:56",1
"16/05/26","19:40",0.0,22.7,88.2,1002.6,284.4,0.6,1.1,290.8,0.00,20.7,23.1,"19:35:28",1
"16/05/26","19:50",0.0,22.7,88.8,1002.6,293.9,0.7,1.1,319.9,0.00,20.8,23.1,"19:42:56",1
"16/05/26","20:00",0.2,22.6,89.3,1002.9,281.8,0.2,0.8,321.3,0.00,20.8,23.2,"19:50:40",1
"16/05/26","20:10",0.0,22.6,89.7,1002.6,340.9,0.1,0.6,318.9,0.00,20.9,23.1,"20:06:00",1
"16/05/26","20:20",0.4,22.5,90.1,1002.9,159.4,0.1,0.4,129.9,0.00,20.8,23.2,"20:13:20",1
"16/05/26","20:30",0.0,22.4,90.6,1002.9,288.1,0.1,0.6,301.0,0.00,20.8,22.9,"20:29:20",1
"16/05/26","20:40",0.2,22.4,91.0,1003.4,326.0,0.8,1.4,332.9,0.00,20.9,22.7,"20:37:36",1
"16/05/26","20:50",0.0,22.3,91.4,1003.1,332.1,0.8,1.3,335.5,0.00,20.9,22.8,"20:40:32",1
"16/05/26","21:00",0.4,22.2,91.8,1002.9,339.9,0.7,1.1,352.6,0.00,20.8,22.9,"20:58:16",1
"16/05/26","21:10",0.4,22.2,92.1,1003.4,338.5,0.8,1.3,332.4,0.00,20.9,22.7,"21:02:32",1
"16/05/26","21:20",0.8,22.1,92.3,1003.6,332.7,1.1,1.8,324.8,0.00,20.8,22.7,"21:18:00",1
"16/05/26","21:30",1.0,22.1,92.6,1003.6,302.9,0.3,1.1,341.8,0.00,20.9,22.3,"21:21:04",1
"16/05/26","21:40",1.0,22.1,92.8,1003.6,311.4,0.1,0.5,299.9,0.00,20.9,22.7,"21:36:08",1
"16/05/26","21:50",0.6,22.0,92.9,1003.6,218.2,0.6,1.7,224.5,0.00,20.8,22.4,"21:45:20",1
"16/05/26","22:00",0.4,21.9,93.2,1003.6,203.6,0.7,1.4,209.7,0.00,20.8,22.5,"21:50:48",1
"16/05/26","22:10",0.2,21.8,93.0,1003.4,193.3,0.7,1.4,134.4,0.00,20.7,22.4,"22:06:08",1
"16/05/26","22:20",0.0,21.7,93.1,1003.4,202.3,1.3,2.2,222.6,0.00,20.6,22.5,"22:18:56",1
"16/05/26","22:30",0.2,21.7,93.2,1003.4,176.9,1.0,2.0,199.9,0.00,20.6,22.4,"22:22:24",1
"16/05/26","22:40",0.0,21.7,93.1,1003.4,84.1,0.5,1.7,148.5,0.00,20.6,22.4,"22:31:44",1
"16/05/26","22:50",0.0,21.7,93.0,1003.6,4.4,0.3,1.2,29.9,0.00,20.6,22.4,"22:44:00",1
"16/05/26","23:00",0.4,21.6,92.8,1003.6,336.6,0.2,0.9,30.9,0.00,20.4,22.1,"22:57:12",1
"16/05/26","23:10",0.2,21.5,92.8,1003.6,196.6,0.2,0.9,129.9,0.00,20.3,22.2,"23:04:32",1
"16/05/26","23:20",0.2,21.5,93.0,1003.4,301.3,0.6,1.0,315.8,0.00,20.4,22.1,"23:14:48",1
"16/05/26","23:30",0.0,21.5,93.1,1003.6,321.4,0.5,1.1,358.9,0.00,20.4,22.0,"23:29:28",1
"16/05/26","23:40",0.0,21.4,93.2,1003.1,344.9,0.8,1.6,344.2,0.00,20.3,22.3,"23:35:12",1
"16/05/26","23:50",0.2,21.3,93.4,1003.4,312.7,0.5,1.3,344.7,0.00,20.2,22.1,"23:40:40",1
"16/05/26","24:00",0.0,21.3,93.6,1003.1,222.2,0.1,0.5,235.8,0.00,20.3,22.1,"23:50:32",1
